Location: *
(58.4167°N, 22.5000°E)
Time: 22:30:59
(UTC+00:00)

Cosmos 1934 Rocket - Pass Details

Date: 22 September 2019
Orbit: 938 x 999 km, 83.0° (Epoch: 16 October)

Event Time Altitude Azimuth Distance (km) Brightness Sun altitude
Rises 19:45:57 0° 346° (NNW) 3,627 7.9 -23.8°
Reaches altitude 10° 19:48:26 10° 344° (NNW) 2,684 7.1 -24.0°
Maximum altitude 19:54:30 67° 264° (W) 1,035 4.2 -24.5°
Enters shadow 19:56:55 38° 195° (SSW) 1,430 4.6 -24.7°
